GOES 4 [-]

Last updated on June 19, 2021, 11:20 a.m. UTC

1 11964U 80074A   21169.40407595 -.00000093  00000-0  00000-0 0  9996
2 11964  11.8650 319.0669 0034552  63.0532 307.7810  0.99228417109330
UTC
Height (km)
Latitude
Longitude
Inclination
Orbital Period
UTC large
Height (km)
Speed (km/s)
/
Latitude / Longitude
Inclination (degrees)
Orbital Period (minutes)
Azimuth
Elevation
Range (km)
Doppler Factor
iOS Compass Heading
iOS Angle

Next 30 passes for location: Hong Kong

Rise time Rise Azimuth (degrees) Set time Set Azimuth (degrees) Duration Max altitude (degrees)

No matching passes for this satellites